Hourly Data Report for April 01, 2020

All times are specified in Local Standard Time (LST). Add 1 hour to adjust for Daylight Saving Time where and when it is observed.

MELFORT
SASKATCHEWAN
Current Station Operator: ECCC - MSC

52°49'00.000" N
104°36'00.000" W
490.00 m
4055079
71456
WFF

Download Data

Hourly Data (April 2020)
Hourly Data Report for April 1, 2020
TIME Temp Definition
°C
Dew Point Definition
°C
Rel Hum Definition
%
Wind Dir Definition
10's deg

Wind Spd Definition
km/h
Visibility Definition
km
Stn Press Definition
kPa
Hmdx Definition


Wind Chill Definition


Weather Definition


00:00 -14.7 -17.8 78 31 12   96.05   -22 LegendNANA
01:00 -15.5 -18.3 79 32 14   96.03   -23 LegendNANA
02:00 -16.3 -19.1 79 31 14   96.14   -24 LegendNANA
03:00 -16.6 -19.3 79 31 12   96.11   -24 LegendNANA
04:00 -16.3 -18.6 82 30 14   96.17   -24 LegendNANA
05:00 -15.8 -18.2 82 30 13   96.17   -23 LegendNANA
06:00 -17.2 -19.5 82 29 13   96.24   -25 LegendNANA
07:00 -19.1 -21.2 83 29 11   96.27   -27 LegendNANA
08:00 -19.3 -21.7 81 28 16   96.35   -29 LegendNANA
09:00 -18.0 -20.5 81 29 15   96.41   -27 LegendNANA
10:00 -16.8 -19.5 79 29 16   96.36   -25 LegendNANA
11:00 -16.1 -19.1 78 30 15   96.39   -24 LegendNANA
12:00 -15.4 -18.6 76 31 18   96.26   -24 LegendNANA
13:00 -14.5 -17.9 75 31 16   96.22   -23 LegendNANA
14:00 -13.7 -17.4 74 31 19   96.14   -22 LegendNANA
15:00 -13.1 -17.2 71 31 18   96.16   -21 LegendNANA
16:00 -12.5 -16.9 70 30 16   96.23   -20 LegendNANA
17:00 -12.0 -16.2 71 30 18   96.18   -20 LegendNANA
18:00 -12.3 -16.1 74 29 16   96.24   -20 LegendNANA
19:00 -12.2 -15.3 77 29 15   96.25   -19 LegendNANA
20:00 -11.4 -14.3 79 32 9   96.29   -17 LegendNANA
21:00 -11.8 -13.8 85 36 10   96.33   -17 LegendNANA
22:00 -12.3 -14.2 86 34 12   96.30   -19 LegendNANA
23:00 -13.5 -16.1 81 35 18   96.30   -22 LegendNANA

Notes on Data Quality.

Legend

  • E = Estimated
  • M = Missing
  • NA = Not Available*
  • [empty] = Indicates an unobserved value
Date modified: